Location: Bay Ridge
(40.6340°N, 74.0146°W)
Time: 17:12:02
(UTC+00:00)

Cosmos 372 Rocket - Pass Details

Date: 15 November 2019
Orbit: 739 x 767 km, 74.1° (Epoch: 11 December)

Event Time Altitude Azimuth Distance (km) Brightness Sun altitude
Rises 10:49:37 0° 202° (SSW) 3,197 7.1 -10.3°
Reaches altitude 10° 10:51:59 10° 204° (SSW) 2,272 6.4 -9.8°
Maximum altitude 10:57:07 74° 290° (WNW) 782 3.9 -8.9°
Drops below altitude 10° 11:02:16 10° 16° (NNE) 2,269 6.4 -8.0°
Sets 11:04:38 0° 18° (NNE) 3,193 7.2 -7.5°
